Skip Page Navigation
NASA JPL Caltech
NASA Logo - Jet Propulsion Laboratory + View the NASA Portal
+ Center for Near-Earth Object Studies
JPL Home Earth Solar System Stars & Galaxies Technology
JPL Solar System Dynamics
BODIES ORBITS EPHEMERIDES TOOLS PHYSICAL DATA DISCOVERY FAQ SITE MAP
JPL Small-Body Database Browser
Search: [ help ]  
308193 (2005 CB79)
Classification: TransNeptunian Object          SPK-ID: 2308193
Ephemeris | Orbit Diagram | Orbital Elements | Physical Parameters | Discovery Circumstances ]

[ show orbit diagram ]
Orbital Elements at Epoch 2459000.5 (2020-May-31.0) TDB
Reference: JPL 10 (heliocentric ecliptic J2000)
 Element Value Uncertainty (1-sigma)   Units 
e .14161689088046 1.2518e-05  
a 43.21311702370188 0.00098149 au
q 37.09340974555175 0.00046442 au
i 28.69204333655267 4.5299e-05 deg
node 112.9359142656708 6.8957e-05 deg
peri 92.9711953658299 0.0053843 deg
M 322.3516318644115 0.0049675 deg
tp 2469851.392805887277
(2050-Feb-13.89280589)
1.0817 TDB
period 103758.053896281
284.07
3.5349
0.009678
d
yr
n .003469610179464858 1.1821e-07 deg/d
Q 49.33282430185202 0.0011205 au
  Orbit Determination Parameters
   # obs. used (total)      240  
   data-arc span      6617 days (18.12 yr)  
   first obs. used      2001-12-19  
   last obs. used      2020-01-31  
   planetary ephem.      DE431  
   SB-pert. ephem.      SB431-N16  
   condition code      2  
   norm. resid. RMS      .49657  
   source      ORB  
   producer      Otto Matic  
   solution date      2020-Nov-11 19:02:04  

Additional Information
 Earth MOID = 36.2155 au 
 Jupiter MOID = 32.347 au 
 T_jup = 5.125 
[ show covariance matrix ]

Ephemeris | Orbit Diagram | Orbital Elements | Physical Parameters | Discovery Circumstances ]

Physical Parameter Table
Parameter Symbol Value Units Sigma Reference Notes
absolute magnitude H 4.6   n/a MPO471232  
rotation period rot_per 6.76 h n/a LCDB (Rev. 2019-August); Warner et al., 2009 Result based on less than full coverage, so that the period may be wrong by 30 percent or so.
Published Reference List:
[Thirouin, A.; Ortiz, J.L.; Duffard, R.; Santos-Sanz, P.; et al. (2010) Astron. Astrophys. 522, A93.]

308193 (2005 CB79)          Discovered 2005-Feb-06 by Palomar at Palomar
Reference: 20111210/Numbers.arcLast Updated: 2011-12-12
Ephemeris | Orbit Diagram | Orbital Elements | Physical Parameters | Discovery Circumstances ]
ABOUT SSD CREDITS/AWARDS PRIVACY/COPYRIGHT GLOSSARY LINKS
FirstGov 2020-Nov-28 00:45 UT
(server date/time)  
NASA Home Page
Site Manager:   Ryan S. Park
Webmaster  Alan B. Chamberlin